Port Edwards, WI

4:13 PM CDT on September 26, 2016 (GMT -0500)
Alexander Field South Wood County

Weather History for KISW - April, 2013

Change the Weather History Date:

Wednesday, April 24, 2013

  Actual Average Record
Temperature  
Mean Temperature 38 °F -  
Max Temperature 52 °F 60 °F 84 °F (1948)
Min Temperature 24 °F 35 °F 16 °F (1956)
Degree Days  
Heating Degree Days 27    
Moisture  
Dew Point 23 °F    
Average Humidity 57    
Maximum Humidity 88    
Minimum Humidity 29    
Precipitation  
Precipitation 0.01 in - - ()
Sea Level Pressure  
Sea Level Pressure 30.01 in    
Wind  
Wind Speed 5 mph (WSW)    
Max Wind Speed 18 mph    
Max Gust Speed 29 mph    
Visibility 10 miles    
Events Rain    
Averages and records for this station are not official NWS values.
T = Trace of Precipitation, MM = Missing Value Source: NWS Daily Summary

Daily Weather History Graph

Daily Weather History Graph

Search for Another Location

Airport or City:

Trip Planner

Search our weather history database for the weather conditions in past years. The results will help you decide how hot, cold, wet, or windy it might be!

Date:

Astronomy

Apr. 24, 2013 Rise Set
Actual Time 6:00 AM CDT 7:55 PM CDT
Civil Twilight 5:29 AM CDT 8:26 PM CDT
Nautical Twilight 4:51 AM CDT 9:04 PM CDT
Astronomical Twilight 4:09 AM CDT 9:46 PM CDT
Moon 6:57 PM CDT (4/24) 5:06 AM CDT (4/24)
Length of Visible Light 14h 57m
Length of Day
13h 54m
Waxing Gibbous, 98% of the Moon is Illuminated
Apr 24
Waxing Gibbous
Apr 25
Full
May 2
Last Quarter
May 9
New
May 17
First Quarter

Hourly Weather History & Observations

Time (CDT) Temp. Windchill Dew Point Humidity Pressure Visibility Wind Dir Wind Speed Gust Speed Precip Events Conditions
12:54 AM 27.0 °F - 23.0 °F 85% 30.06 in 10.0 mi Calm Calm - N/A   Clear
1:54 AM 26.1 °F - 23.0 °F 88% 30.05 in 10.0 mi Calm Calm - N/A   Clear
2:54 AM 26.1 °F - 21.9 °F 84% 30.03 in 10.0 mi Calm Calm - N/A   Clear
3:54 AM 25.0 °F - 21.0 °F 85% 30.04 in 10.0 mi Calm Calm - N/A   Clear
4:54 AM 24.1 °F - 21.0 °F 88% 30.04 in 10.0 mi Calm Calm - N/A   Clear
5:54 AM 25.0 °F 18.1 °F 21.0 °F 85% 30.04 in 10.0 mi WNW 5.8 mph - N/A   Clear
6:54 AM 26.1 °F 21.9 °F 21.0 °F 81% 30.05 in 10.0 mi West 3.5 mph - N/A   Clear
7:54 AM 30.9 °F 25.2 °F 23.0 °F 72% 30.06 in 10.0 mi NW 5.8 mph - N/A   Clear
8:54 AM 36.0 °F - 21.0 °F 55% 30.06 in 10.0 mi Calm Calm - N/A   Clear
9:54 AM 39.9 °F 35.1 °F 19.0 °F 43% 30.05 in 10.0 mi West 6.9 mph - N/A   Clear
10:54 AM 43.0 °F 38.8 °F 16.0 °F 34% 30.04 in 10.0 mi West 6.9 mph - N/A   Clear
11:54 AM 45.0 °F 38.9 °F 17.1 °F 33% 30.03 in 10.0 mi SSW 12.7 mph 18.4 mph N/A   Clear
12:54 PM 48.0 °F - 18.0 °F 30% 30.02 in 10.0 mi West 12.7 mph 19.6 mph N/A   Clear
1:54 PM 51.1 °F - 19.9 °F 29% 30.00 in 10.0 mi WSW 10.4 mph 19.6 mph N/A   Scattered Clouds
2:54 PM 48.9 °F - 19.9 °F 32% 30.00 in 10.0 mi West 10.4 mph 18.4 mph N/A   Mostly Cloudy
3:54 PM 52.0 °F - 21.9 °F 31% 29.99 in 10.0 mi West 13.8 mph 26.5 mph N/A   Overcast
4:54 PM 51.1 °F - 21.9 °F 32% 29.98 in 10.0 mi WSW 11.5 mph 23.0 mph N/A   Partly Cloudy
5:54 PM 50.0 °F - 21.0 °F 32% 29.98 in 10.0 mi West 11.5 mph 18.4 mph N/A   Mostly Cloudy
6:54 PM 48.0 °F - 23.0 °F 37% 29.97 in 10.0 mi WSW 10.4 mph 18.4 mph N/A   Mostly Cloudy
7:54 PM 46.0 °F 43.1 °F 24.1 °F 42% 29.96 in 10.0 mi SW 5.8 mph - N/A   Mostly Cloudy
8:54 PM 44.1 °F 40.8 °F 25.0 °F 47% 29.96 in 10.0 mi SSW 5.8 mph - N/A   Mostly Cloudy
9:54 PM 44.1 °F 40.1 °F 26.1 °F 49% 29.95 in 10.0 mi South 6.9 mph - N/A   Mostly Cloudy
10:54 PM 41.0 °F 32.5 °F 33.1 °F 73% 29.96 in 10.0 mi SW 17.3 mph 28.8 mph 0.00 in Rain Light Rain
11:45 PM 39.2 °F 30.8 °F 33.8 °F 81% 29.92 in 10.0 mi SSW 15.0 mph 24.2 mph 0.01 in   Overcast
11:54 PM 39.0 °F 29.6 °F 34.0 °F 82% 29.95 in 10.0 mi SSW 18.4 mph 24.2 mph 0.01 in Rain Light Rain